Starlink 31582

operational
NORAD ID: 59545 Int'l Des: 2024-074 Owner: SPXS Country: US Constellation: starlink
LEOCIRCULAR

关于 Starlink 31582

正在加载描述...

实时位置

正在加载3D地球...

即将过境

高度历史

Altitude vs Time

uPlot chart will show altitude changes over time

两行轨道根数

1 59545U 24074M 25305.48633507 -.00000799 00000-0 -19491-4 0 9991
2 59545 43.0022 347.8613 0002038 261.0082 99.0539 15.27584553 86403
Epoch: Nov 1, 2025 • Age: 9 hours

当前状态

高度 495.0 km
速度 7.62 km/s
星下点 -43.16°S, 95.17°W
发射日期 Apr 18, 2024
运行时间 1.5 years
类型 internet

技术详情

分类 Payload
质量 730.00 kg
干质量 700.00 kg
总质量 730.00 kg
长度 0.30 m
直径 4.10 m
跨度 29.00 m
形状 Box + pan
制造商 SPXS
平台类型 Starlink V2M
阶段状态 In Orbit
所有者/国家 SPXS/US

大型星座

Loading constellations...